DLH438 EDDF-KDFW

Flight info

Callsign DLH438
Flight time N/A
Altitude 36000
Route OBOKA3M/25C OBOKA Z28 DIBIR DCT BUDIP DCT RAVLO Y70 OTBED L60 PENIL M144 BAGSO DCT DEVOL DCT DOGAL/M080F380 NATC NEEKO/N0463F380 N624C ANATI/N0468F400 DCT POLTY DCT ROSVO DCT ECK DCT GIJ DCT RBS DCT KK45I DCT FSM DCT KOMMA DCT RRNET SEEVR4
Aircraft A343/H-SDE2E3FGHIJ4J5M1RWXY/LB1D1

Departure

Time 2026-05-04 09:15
Airport Frankfurt Main Airport (EDDF)

Arrival

Time N/A
Airport Dallas Fort Worth International Airport (KDFW)
Time Latitude Longitude Altitude Speed Heading
2026-05-04 08:33 50.03851 8.54690 361 ft 0 kts 160°
2026-05-04 09:05 50.03846 8.54693 353 ft 3 kts 160°
2026-05-04 09:05 50.03804 8.54717 358 ft 9 kts 160°
2026-05-04 09:05 50.03769 8.54783 357 ft 7 kts 81°
2026-05-04 09:05 50.03785 8.54851 358 ft 6 kts 69°
2026-05-04 09:06 50.03800 8.54912 361 ft 6 kts 69°
2026-05-04 09:07 50.04052 8.55967 361 ft 23 kts 69°
2026-05-04 09:08 50.04108 8.56197 364 ft 22 kts 70°
2026-05-04 09:08 50.04161 8.56418 363 ft 21 kts 70°
2026-05-04 09:08 50.04210 8.56625 364 ft 20 kts 69°
2026-05-04 09:08 50.04255 8.56814 370 ft 18 kts 70°
2026-05-04 09:09 50.04303 8.57014 371 ft 22 kts 70°
2026-05-04 09:09 50.04359 8.57248 372 ft 24 kts 69°
2026-05-04 09:09 50.04417 8.57491 370 ft 24 kts 70°
2026-05-04 09:09 50.04470 8.57713 371 ft 21 kts 70°
2026-05-04 09:10 50.04522 8.57929 372 ft 21 kts 70°
2026-05-04 09:10 50.04575 8.58151 373 ft 22 kts 70°
2026-05-04 09:10 50.04624 8.58357 373 ft 19 kts 70°
2026-05-04 09:10 50.04655 8.58518 375 ft 10 kts 92°
2026-05-04 09:11 50.04616 8.58577 373 ft 5 kts 160°
2026-05-04 09:11 50.04613 8.58579 374 ft 0 kts 161°
2026-05-04 09:11 50.04604 8.58583 373 ft 3 kts 161°
2026-05-04 09:12 50.04566 8.58603 378 ft 8 kts 160°
2026-05-04 09:12 50.04507 8.58633 379 ft 8 kts 177°
2026-05-04 09:14 50.04391 8.58189 373 ft 64 kts 249°
2026-05-04 09:14 50.04180 8.57305 374 ft 109 kts 250°
2026-05-04 09:14 50.03870 8.56005 363 ft 146 kts 249°
2026-05-04 09:14 50.03480 8.54375 472 ft 167 kts 249°
2026-05-04 09:15 50.03085 8.52697 961 ft 165 kts 249°
2026-05-04 09:15 50.02651 8.50994 1374 ft 172 kts 244°
2026-05-04 09:15 50.01944 8.49404 1710 ft 188 kts 225°
2026-05-04 09:15 50.00827 8.48272 2211 ft 196 kts 201°
2026-05-04 09:17 49.90314 8.42178 6695 ft 248 kts 238°
2026-05-04 09:18 49.89427 8.39859 7396 ft 252 kts 240°
2026-05-04 09:18 49.88679 8.37395 8114 ft 255 kts 249°
2026-05-04 09:18 49.88287 8.34694 8812 ft 260 kts 265°
2026-05-04 09:18 49.88528 8.31900 9492 ft 267 kts 289°
2026-05-04 09:19 49.89587 8.29468 10048 ft 281 kts 312°
2026-05-04 09:19 49.91070 8.27372 10384 ft 298 kts 316°
2026-05-04 09:19 49.92698 8.25233 10661 ft 315 kts 317°
2026-05-04 09:19 49.94409 8.22983 10920 ft 331 kts 317°
2026-05-04 09:20 49.96201 8.20608 11206 ft 345 kts 316°
2026-05-04 09:20 49.98050 8.18146 11587 ft 355 kts 316°
2026-05-04 09:20 49.99937 8.15623 12115 ft 360 kts 316°
2026-05-04 09:20 50.01845 8.13068 12709 ft 364 kts 316°
2026-05-04 09:21 50.03781 8.10469 13087 ft 374 kts 316°
2026-05-04 09:21 50.05783 8.07776 13403 ft 385 kts 316°
2026-05-04 09:21 50.07827 8.05025 13908 ft 391 kts 316°
2026-05-04 09:21 50.09880 8.02257 14577 ft 390 kts 316°
2026-05-04 09:22 50.11946 7.99467 15051 ft 396 kts 316°
2026-05-04 09:22 50.14042 7.96631 15541 ft 401 kts 316°
2026-05-04 09:22 50.16153 7.93774 16075 ft 404 kts 316°
2026-05-04 09:22 50.18286 7.90883 16585 ft 408 kts 316°
2026-05-04 09:23 50.20438 7.87963 17106 ft 412 kts 316°
2026-05-04 09:23 50.22606 7.85016 17639 ft 415 kts 316°
2026-05-04 09:23 50.24793 7.82041 18166 ft 419 kts 316°
2026-05-04 09:23 50.26996 7.79039 18650 ft 422 kts 315°
2026-05-04 09:25 50.44381 7.60815 21930 ft 447 kts 333°
2026-05-04 09:25 50.47240 7.58862 22336 ft 449 kts 333°
2026-05-04 09:26 50.50110 7.56892 22722 ft 451 kts 332°
2026-05-04 09:26 50.52993 7.54906 23073 ft 454 kts 332°
2026-05-04 09:26 50.55844 7.52777 23430 ft 453 kts 327°
2026-05-04 09:26 50.58532 7.50208 23757 ft 453 kts 323°
2026-05-04 09:27 50.61187 7.47500 24047 ft 454 kts 322°
2026-05-04 09:27 50.63838 7.44775 24320 ft 457 kts 322°
2026-05-04 09:27 50.66516 7.42020 24547 ft 461 kts 322°
2026-05-04 09:27 50.69208 7.39253 24858 ft 462 kts 322°
2026-05-04 09:28 50.71899 7.36450 25176 ft 462 kts 320°
2026-05-04 09:28 50.74374 7.33256 25464 ft 458 kts 310°
2026-05-04 09:28 50.76452 7.29494 25749 ft 454 kts 303°
2026-05-04 09:28 50.78350 7.25517 26038 ft 454 kts 301°
2026-05-04 09:29 50.80178 7.21439 26350 ft 454 kts 300°
2026-05-04 09:29 50.81972 7.17332 26645 ft 455 kts 300°
2026-05-04 09:29 50.83766 7.13201 26930 ft 456 kts 300°
2026-05-04 09:29 50.85570 7.09063 27207 ft 458 kts 300°
2026-05-04 09:30 50.87388 7.04918 27493 ft 459 kts 300°
2026-05-04 09:30 50.89219 7.00763 27763 ft 461 kts 300°
2026-05-04 09:30 50.91055 6.96612 28031 ft 462 kts 300°
2026-05-04 09:30 50.92907 6.92432 28294 ft 463 kts 300°
2026-05-04 09:31 50.94757 6.88244 28567 ft 464 kts 300°
2026-05-04 09:31 50.96610 6.84043 28831 ft 465 kts 300°
2026-05-04 09:31 50.98460 6.79841 29219 ft 464 kts 300°
2026-05-04 09:31 51.00302 6.75653 29632 ft 462 kts 300°
2026-05-04 09:32 51.02134 6.71481 30032 ft 460 kts 299°
2026-05-04 09:32 51.03958 6.67319 30349 ft 458 kts 299°
2026-05-04 09:34 51.16592 6.38285 32233 ft 455 kts 299°
2026-05-04 09:34 51.18359 6.34191 32561 ft 453 kts 299°
2026-05-04 09:34 51.20140 6.30062 32853 ft 451 kts 299°
2026-05-04 09:34 51.21939 6.25885 33078 ft 452 kts 299°
2026-05-04 09:35 51.23692 6.21809 33294 ft 451 kts 299°
2026-05-04 09:35 51.25467 6.17675 33560 ft 451 kts 298°
2026-05-04 09:35 51.27233 6.13559 33873 ft 449 kts 298°
2026-05-04 09:35 51.28995 6.09433 33985 ft 450 kts 298°
2026-05-04 09:37 51.43934 5.77253 33994 ft 457 kts 307°
2026-05-04 09:38 51.48322 5.69880 33992 ft 457 kts 307°
2026-05-04 09:38 51.52717 5.62486 33991 ft 458 kts 307°
2026-05-04 09:39 51.57095 5.55069 33992 ft 457 kts 307°
2026-05-04 09:39 51.61462 5.47631 33984 ft 457 kts 307°
2026-05-04 09:40 51.65824 5.40178 33991 ft 457 kts 307°
2026-05-04 09:40 51.70181 5.32709 34014 ft 457 kts 307°
2026-05-04 09:42 51.87594 5.02643 33985 ft 458 kts 307°
2026-05-04 09:43 51.91934 4.95092 33982 ft 458 kts 306°
2026-05-04 09:43 51.96268 4.87529 33995 ft 458 kts 307°
2026-05-04 09:44 52.00609 4.79929 33986 ft 460 kts 307°
2026-05-04 09:46 52.15313 4.46915 33992 ft 447 kts 289°
2026-05-04 09:46 52.17915 4.37727 33990 ft 447 kts 289°
2026-05-04 09:47 52.20519 4.28536 33999 ft 447 kts 289°
2026-05-04 09:49 52.30969 3.91812 34008 ft 446 kts 291°
2026-05-04 09:51 52.40049 3.59450 34000 ft 447 kts 290°
2026-05-04 09:51 52.42628 3.50178 33996 ft 447 kts 290°
2026-05-04 09:52 52.45201 3.40885 34005 ft 449 kts 291°
2026-05-04 09:52 52.47775 3.31556 34020 ft 449 kts 290°
2026-05-04 09:53 52.50350 3.22181 34006 ft 452 kts 291°
2026-05-04 09:53 52.52931 3.12753 34012 ft 453 kts 291°
2026-05-04 09:54 52.55504 3.03314 34007 ft 453 kts 291°
2026-05-04 09:54 52.58072 2.93855 34015 ft 454 kts 291°
2026-05-04 09:55 52.60663 2.84344 34014 ft 457 kts 291°
2026-05-04 09:55 52.63313 2.74846 34013 ft 457 kts 292°
2026-05-04 09:56 52.65676 2.65174 34033 ft 455 kts 287°
2026-05-04 09:56 52.67657 2.55281 34015 ft 454 kts 285°
2026-05-04 09:57 52.69545 2.45347 34021 ft 454 kts 285°
2026-05-04 09:57 52.71427 2.35401 34023 ft 455 kts 285°
2026-05-04 09:58 52.73317 2.25440 34023 ft 455 kts 285°
2026-05-04 09:58 52.75204 2.15475 34030 ft 455 kts 285°
2026-05-04 10:00 52.82790 1.75418 34034 ft 458 kts 286°
2026-05-04 10:04 52.95729 1.06094 34048 ft 464 kts 285°
2026-05-04 10:04 52.97596 0.95863 34047 ft 464 kts 286°
2026-05-04 10:05 52.99461 0.85589 34045 ft 465 kts 285°
2026-05-04 10:05 53.01321 0.75279 34049 ft 467 kts 286°
2026-05-04 10:06 53.03176 0.64945 34048 ft 466 kts 286°
2026-05-04 10:06 53.05017 0.54633 34053 ft 466 kts 286°
2026-05-04 10:08 53.11435 0.18228 34057 ft 471 kts 286°
2026-05-04 10:08 53.13254 0.07744 34054 ft 471 kts 286°
2026-05-04 10:09 53.15065 -0.02741 34045 ft 471 kts 286°
2026-05-04 10:09 53.16885 -0.13306 34046 ft 478 kts 286°
2026-05-04 10:10 53.18705 -0.23975 34050 ft 479 kts 286°
2026-05-04 10:10 53.20513 -0.34641 34048 ft 477 kts 286°
2026-05-04 10:11 53.22312 -0.45309 34049 ft 478 kts 286°
2026-05-04 10:11 53.24108 -0.56013 34045 ft 478 kts 286°
2026-05-04 10:12 53.25889 -0.66706 34053 ft 478 kts 286°
2026-05-04 10:12 53.27665 -0.77426 34053 ft 479 kts 286°
2026-05-04 10:13 53.29432 -0.88165 34063 ft 479 kts 286°
2026-05-04 10:13 53.31177 -0.98835 34071 ft 479 kts 286°
2026-05-04 10:14 53.32942 -1.09669 34075 ft 481 kts 287°
2026-05-04 10:16 53.39872 -1.53020 34079 ft 483 kts 286°
2026-05-04 10:16 53.41594 -1.63932 34079 ft 486 kts 287°
2026-05-04 10:17 53.43303 -1.74894 34077 ft 487 kts 286°
2026-05-04 10:19 53.49902 -2.19018 34075 ft 491 kts 281°
2026-05-04 10:19 53.50944 -2.30375 34072 ft 492 kts 280°
2026-05-04 10:20 53.51898 -2.41775 34080 ft 492 kts 280°
2026-05-04 10:20 53.52363 -2.47449 34277 ft 491 kts 279°
2026-05-04 10:20 53.52826 -2.53123 34506 ft 489 kts 279°
2026-05-04 10:21 53.53288 -2.58785 34739 ft 487 kts 279°
2026-05-04 10:21 53.53745 -2.64413 34975 ft 486 kts 279°
2026-05-04 10:21 53.54662 -2.75728 35069 ft 492 kts 279°
2026-05-04 10:22 53.56033 -2.92884 35071 ft 492 kts 279°
2026-05-04 10:23 53.56927 -3.04281 35070 ft 491 kts 279°
2026-05-04 10:25 53.60413 -3.50100 35075 ft 494 kts 279°
2026-05-04 10:25 53.61259 -3.61593 35078 ft 494 kts 279°
2026-05-04 10:26 53.62033 -3.73111 35081 ft 497 kts 277°
2026-05-04 10:26 53.62485 -3.84749 35080 ft 498 kts 275°
2026-05-04 10:27 53.62875 -3.96327 35081 ft 498 kts 276°
2026-05-04 10:27 53.63308 -4.07985 35080 ft 498 kts 276°
2026-05-04 10:28 53.63755 -4.19630 35080 ft 499 kts 276°
2026-05-04 10:28 53.64194 -4.31323 35083 ft 501 kts 276°
2026-05-04 10:29 53.64627 -4.43042 35083 ft 501 kts 276°
2026-05-04 10:29 53.65051 -4.54759 35083 ft 501 kts 276°
2026-05-04 10:30 53.65451 -4.66472 35079 ft 500 kts 276°
2026-05-04 10:30 53.65837 -4.78141 35080 ft 497 kts 276°
2026-05-04 10:31 53.66219 -4.89772 35090 ft 497 kts 276°
2026-05-04 10:32 53.67474 -5.30455 35097 ft 496 kts 275°
2026-05-04 10:33 53.67794 -5.42064 35100 ft 495 kts 275°
2026-05-04 10:33 53.68125 -5.53654 35100 ft 495 kts 276°
2026-05-04 10:34 53.68809 -5.65191 35095 ft 494 kts 279°
2026-05-04 10:34 53.69616 -5.76691 35084 ft 493 kts 279°
2026-05-04 10:35 53.70367 -5.88203 35084 ft 494 kts 278°
2026-05-04 10:35 53.71065 -5.99734 35097 ft 494 kts 278°
2026-05-04 10:36 53.71739 -6.11269 35081 ft 494 kts 278°
2026-05-04 10:36 53.72403 -6.22812 35087 ft 494 kts 278°
2026-05-04 10:37 53.73057 -6.34358 35081 ft 494 kts 278°
2026-05-04 10:37 53.73702 -6.45906 35085 ft 494 kts 278°
2026-05-04 10:39 53.75869 -6.86352 35092 ft 494 kts 277°
2026-05-04 10:40 53.76464 -6.97921 35084 ft 494 kts 277°
2026-05-04 10:40 53.77048 -7.09496 35092 ft 494 kts 277°
2026-05-04 10:41 53.77619 -7.21063 35083 ft 494 kts 277°
2026-05-04 10:41 53.78179 -7.32623 35074 ft 491 kts 277°
2026-05-04 10:42 53.78724 -7.44097 35085 ft 488 kts 277°
2026-05-04 10:42 53.79257 -7.55537 35086 ft 488 kts 277°
2026-05-04 10:43 53.79778 -7.66978 35084 ft 488 kts 276°
2026-05-04 10:45 53.81750 -8.12683 35086 ft 487 kts 276°
2026-05-04 10:45 53.82216 -8.24120 35091 ft 487 kts 276°
2026-05-04 10:46 53.82671 -8.35561 35087 ft 487 kts 276°
2026-05-04 10:46 53.83116 -8.47006 35096 ft 487 kts 276°
2026-05-04 10:47 53.83550 -8.58446 35101 ft 487 kts 276°
2026-05-04 10:47 53.83973 -8.69891 35100 ft 487 kts 276°
2026-05-04 10:49 53.85487 -9.13683 35099 ft 485 kts 275°
2026-05-04 10:50 53.85856 -9.25100 35119 ft 485 kts 275°
2026-05-04 10:52 53.87217 -9.70617 35138 ft 478 kts 275°
2026-05-04 10:52 53.87527 -9.81872 35140 ft 478 kts 275°
2026-05-04 10:54 53.88661 -10.26849 35151 ft 477 kts 274°
2026-05-04 10:56 53.90195 -10.71585 35156 ft 474 kts 276°
2026-05-04 10:57 53.90667 -10.82734 35156 ft 474 kts 276°
2026-05-04 10:57 53.91109 -10.93897 35156 ft 474 kts 275°
2026-05-04 10:58 53.91536 -11.05062 35159 ft 474 kts 275°
2026-05-04 10:58 53.91952 -11.16218 35159 ft 474 kts 275°
2026-05-04 10:59 53.92360 -11.27389 35163 ft 474 kts 275°
2026-05-04 10:59 53.92758 -11.38565 35163 ft 474 kts 275°
2026-05-04 11:00 53.93145 -11.49731 35162 ft 474 kts 275°
2026-05-04 11:02 53.94579 -11.94116 35168 ft 468 kts 274°
2026-05-04 11:05 53.96811 -12.76633 35172 ft 466 kts 274°
2026-05-04 11:06 53.97065 -12.87629 35170 ft 465 kts 273°
2026-05-04 11:06 53.97309 -12.98604 35176 ft 465 kts 273°
2026-05-04 11:10 53.98733 -13.75221 35178 ft 460 kts 272°
2026-05-04 11:12 53.99320 -14.18339 35185 ft 457 kts 272°
2026-05-04 11:12 53.99442 -14.29120 35187 ft 455 kts 272°
2026-05-04 11:13 53.99555 -14.39885 35188 ft 457 kts 271°
2026-05-04 11:13 53.99658 -14.50670 35191 ft 455 kts 271°
2026-05-04 11:14 53.99752 -14.61411 35193 ft 455 kts 271°
2026-05-04 11:16 54.02557 -15.03738 35192 ft 451 kts 291°
2026-05-04 11:16 54.05356 -15.13289 35195 ft 454 kts 300°
2026-05-04 11:17 54.08989 -15.22133 35198 ft 457 kts 308°
2026-05-04 11:19 54.26739 -15.44599 35195 ft 462 kts 336°
2026-05-04 11:19 54.29753 -15.46535 35194 ft 463 kts 339°
2026-05-04 11:19 54.36005 -15.49355 35192 ft 466 kts 347°
2026-05-04 11:20 54.42415 -15.51159 35189 ft 466 kts 342°
2026-05-04 11:20 54.48419 -15.55189 35183 ft 462 kts 329°
2026-05-04 11:22 54.59200 -15.86502 35189 ft 450 kts 279°
2026-05-04 11:22 54.59770 -15.91813 35192 ft 450 kts 279°
2026-05-04 11:23 54.60905 -16.02431 35192 ft 450 kts 279°
2026-05-04 11:25 54.65106 -16.39521 35198 ft 450 kts 280°
2026-05-04 11:25 54.66297 -16.50137 35199 ft 450 kts 279°
2026-05-04 11:27 54.71535 -16.97960 35197 ft 450 kts 279°
2026-05-04 11:28 54.72674 -17.08608 35198 ft 450 kts 279°
2026-05-04 11:28 54.73802 -17.19253 35200 ft 450 kts 279°
2026-05-04 11:29 54.74922 -17.29912 35200 ft 450 kts 279°
2026-05-04 11:29 54.76032 -17.40570 35206 ft 450 kts 279°
2026-05-04 11:33 54.83534 -18.15285 35216 ft 450 kts 279°
2026-05-04 11:33 54.84571 -18.26001 35217 ft 450 kts 279°
2026-05-04 11:34 54.85596 -18.36707 35223 ft 450 kts 279°
2026-05-04 11:34 54.86614 -18.47438 35222 ft 451 kts 278°
2026-05-04 11:35 54.87623 -18.58184 35231 ft 451 kts 278°
2026-05-04 11:35 54.88622 -18.68927 35229 ft 451 kts 278°
2026-05-04 11:36 54.89611 -18.79677 35227 ft 451 kts 278°
2026-05-04 11:36 54.90427 -18.88625 35230 ft 451 kts 278°
2026-05-04 11:37 54.91557 -19.01132 35234 ft 451 kts 278°
2026-05-04 11:37 54.92518 -19.11904 35235 ft 451 kts 278°
2026-05-04 11:38 54.93317 -19.20938 35235 ft 451 kts 278°
2026-05-04 11:38 54.94261 -19.31714 35241 ft 451 kts 278°
2026-05-04 11:39 54.95194 -19.42489 35241 ft 451 kts 278°
2026-05-04 11:41 54.98382 -19.80186 35248 ft 451 kts 278°
2026-05-04 11:41 54.99273 -19.90984 35248 ft 450 kts 278°
2026-05-04 11:42 55.00277 -20.01735 35253 ft 450 kts 284°
2026-05-04 11:42 55.02047 -20.12202 35254 ft 450 kts 284°
2026-05-04 11:43 55.02717 -20.22991 35252 ft 449 kts 271°
2026-05-04 11:43 55.03035 -20.33870 35254 ft 450 kts 274°
2026-05-04 11:44 55.03416 -20.44755 35254 ft 450 kts 274°
2026-05-04 11:44 55.03808 -20.55631 35263 ft 450 kts 274°
2026-05-04 11:45 55.04201 -20.66516 35251 ft 450 kts 274°
2026-05-04 11:45 55.04585 -20.77398 35260 ft 450 kts 274°
2026-05-04 11:46 55.04959 -20.88275 35266 ft 449 kts 274°
2026-05-04 11:46 55.05322 -20.99155 35265 ft 449 kts 274°
2026-05-04 11:47 55.05675 -21.10033 35271 ft 449 kts 274°
2026-05-04 11:47 55.06018 -21.20922 35270 ft 449 kts 274°
2026-05-04 11:48 55.06352 -21.31807 35278 ft 449 kts 274°
2026-05-04 11:48 55.06676 -21.42696 35276 ft 450 kts 273°
2026-05-04 11:49 55.06991 -21.53597 35279 ft 450 kts 273°
2026-05-04 11:49 55.07296 -21.64501 35279 ft 450 kts 273°
2026-05-04 11:50 55.07591 -21.75406 35284 ft 450 kts 273°
2026-05-04 11:50 55.07877 -21.86305 35282 ft 450 kts 273°
2026-05-04 11:51 55.08153 -21.97216 35279 ft 450 kts 272°
2026-05-04 11:51 55.08419 -22.08144 35289 ft 450 kts 272°
2026-05-04 11:52 55.08676 -22.19069 35288 ft 451 kts 272°
2026-05-04 11:52 55.08923 -22.29990 35289 ft 450 kts 272°
2026-05-04 11:53 55.09159 -22.40914 35290 ft 450 kts 272°
2026-05-04 11:53 55.09387 -22.51843 35290 ft 451 kts 272°
2026-05-04 11:55 55.10198 -22.95551 35298 ft 451 kts 271°
2026-05-04 11:56 55.10376 -23.06505 35299 ft 451 kts 271°
2026-05-04 11:56 55.10545 -23.17457 35298 ft 451 kts 271°
2026-05-04 11:57 55.10704 -23.28409 35303 ft 451 kts 271°
2026-05-04 11:57 55.10853 -23.39363 35303 ft 451 kts 271°
2026-05-04 11:58 55.10992 -23.50324 35304 ft 451 kts 271°
2026-05-04 11:58 55.11122 -23.61275 35303 ft 451 kts 271°
2026-05-04 11:59 55.11241 -23.72226 35308 ft 451 kts 271°
2026-05-04 11:59 55.11351 -23.83158 35309 ft 449 kts 271°
2026-05-04 12:00 55.11450 -23.94070 35315 ft 449 kts 271°
2026-05-04 12:00 55.11540 -24.04980 35317 ft 449 kts 271°
2026-05-04 12:01 55.11620 -24.15881 35318 ft 449 kts 271°
2026-05-04 12:02 55.11822 -24.53872 35317 ft 444 kts 271°
2026-05-04 12:03 55.11859 -24.64665 35322 ft 445 kts 271°
2026-05-04 12:03 55.11885 -24.75468 35324 ft 445 kts 271°
2026-05-04 12:04 55.11902 -24.86269 35322 ft 444 kts 271°
2026-05-04 12:04 55.11910 -24.97050 35325 ft 443 kts 271°
2026-05-04 12:05 55.11908 -25.07808 35325 ft 443 kts 270°
2026-05-04 12:05 55.11896 -25.18561 35330 ft 443 kts 270°
2026-05-04 12:06 55.11875 -25.29320 35330 ft 443 kts 270°
2026-05-04 12:06 55.11845 -25.40074 35333 ft 443 kts 270°
2026-05-04 12:07 55.11805 -25.50828 35324 ft 443 kts 270°
2026-05-04 12:07 55.11755 -25.61568 35333 ft 442 kts 270°
2026-05-04 12:08 55.11697 -25.72304 35333 ft 442 kts 270°
2026-05-04 12:08 55.11628 -25.83030 35333 ft 442 kts 270°
2026-05-04 12:09 55.11551 -25.93750 35336 ft 442 kts 270°
2026-05-04 12:09 55.11465 -26.04405 35337 ft 442 kts 269°
2026-05-04 12:10 55.11368 -26.15138 35337 ft 442 kts 269°
2026-05-04 12:10 55.11263 -26.25836 35339 ft 440 kts 269°
2026-05-04 12:11 55.11148 -26.36525 35346 ft 440 kts 269°
2026-05-04 12:11 55.11024 -26.47206 35346 ft 440 kts 269°
2026-05-04 12:12 55.10890 -26.57896 35344 ft 440 kts 269°
2026-05-04 12:12 55.10747 -26.68580 35344 ft 440 kts 269°
2026-05-04 12:14 55.10084 -27.11212 35346 ft 439 kts 268°
2026-05-04 12:15 55.09896 -27.21861 35347 ft 439 kts 268°
2026-05-04 12:15 55.09698 -27.32503 35353 ft 439 kts 268°
2026-05-04 12:16 55.09490 -27.43148 35349 ft 439 kts 268°
2026-05-04 12:16 55.09274 -27.53787 35349 ft 439 kts 268°
2026-05-04 12:17 55.09048 -27.64428 35349 ft 439 kts 268°
2026-05-04 12:17 55.08813 -27.75063 35349 ft 439 kts 267°
2026-05-04 12:18 55.08568 -27.85698 35355 ft 439 kts 267°
2026-05-04 12:18 55.08315 -27.96341 35354 ft 438 kts 267°
2026-05-04 12:19 55.08052 -28.06958 35355 ft 438 kts 267°
2026-05-04 12:19 55.07780 -28.17586 35355 ft 438 kts 267°
2026-05-04 12:20 55.07499 -28.28212 35354 ft 438 kts 267°
2026-05-04 12:20 55.07208 -28.38839 35354 ft 438 kts 267°
2026-05-04 12:21 55.06910 -28.49391 35355 ft 438 kts 266°
2026-05-04 12:21 55.06600 -28.60073 35379 ft 438 kts 266°
2026-05-04 12:22 55.06283 -28.70625 35360 ft 439 kts 266°
2026-05-04 12:22 55.05955 -28.81267 35361 ft 439 kts 266°
2026-05-04 12:23 55.05618 -28.91904 35358 ft 439 kts 266°
2026-05-04 12:23 55.05271 -29.02537 35359 ft 439 kts 266°
2026-05-04 12:24 55.04974 -29.11445 35354 ft 439 kts 266°
2026-05-04 12:24 55.04610 -29.22084 35353 ft 439 kts 266°
2026-05-04 12:25 55.04236 -29.32719 35360 ft 439 kts 266°
2026-05-04 12:25 55.03854 -29.43346 35361 ft 439 kts 266°
2026-05-04 12:26 55.03465 -29.53905 35364 ft 439 kts 266°
2026-05-04 12:26 55.03064 -29.64533 35358 ft 439 kts 265°
2026-05-04 12:27 55.02655 -29.75156 35362 ft 439 kts 265°
2026-05-04 12:27 55.02236 -29.85771 35363 ft 439 kts 265°
2026-05-04 12:28 55.01822 -29.96389 35362 ft 439 kts 267°
2026-05-04 12:28 55.01958 -30.07030 35363 ft 440 kts 272°
2026-05-04 12:29 55.02349 -30.17669 35363 ft 440 kts 273°
2026-05-04 12:29 55.02789 -30.28298 35366 ft 440 kts 273°
2026-05-04 12:30 55.03213 -30.38938 35364 ft 440 kts 272°
2026-05-04 12:30 55.03615 -30.49576 35371 ft 440 kts 272°
2026-05-04 12:31 55.04004 -30.60220 35368 ft 440 kts 272°
2026-05-04 12:31 55.04382 -30.70860 35368 ft 440 kts 272°
2026-05-04 12:32 55.04934 -30.86830 35379 ft 440 kts 272°
2026-05-04 12:33 55.05292 -30.97518 35370 ft 442 kts 272°
2026-05-04 12:33 55.05641 -31.08231 35374 ft 443 kts 272°
2026-05-04 12:34 55.05981 -31.18943 35374 ft 442 kts 272°
2026-05-04 12:34 55.06311 -31.29663 35373 ft 442 kts 272°
2026-05-04 12:35 55.06632 -31.40380 35371 ft 442 kts 272°
2026-05-04 12:35 55.06944 -31.51106 35374 ft 442 kts 272°
2026-05-04 12:36 55.07246 -31.61829 35378 ft 442 kts 272°
2026-05-04 12:36 55.07539 -31.72545 35374 ft 443 kts 272°
2026-05-04 12:37 55.07822 -31.83282 35389 ft 443 kts 272°
2026-05-04 12:37 55.08097 -31.94061 35379 ft 446 kts 272°
2026-05-04 12:38 55.08364 -32.04894 35376 ft 447 kts 271°
2026-05-04 12:38 55.08621 -32.15722 35379 ft 446 kts 271°
2026-05-04 12:39 55.08869 -32.26547 35381 ft 446 kts 271°
2026-05-04 12:39 55.09107 -32.37376 35377 ft 447 kts 271°
2026-05-04 12:40 55.09333 -32.48133 35376 ft 446 kts 271°
2026-05-04 12:40 55.09552 -32.58973 35380 ft 447 kts 271°
2026-05-04 12:41 55.09761 -32.69811 35386 ft 447 kts 271°
2026-05-04 12:41 55.09961 -32.80655 35389 ft 447 kts 271°
2026-05-04 12:42 55.10152 -32.91539 35383 ft 449 kts 271°
2026-05-04 12:42 55.10333 -33.02451 35374 ft 450 kts 271°
2026-05-04 12:43 55.10505 -33.13362 35382 ft 450 kts 271°
2026-05-04 12:43 55.10667 -33.24282 35385 ft 450 kts 271°
2026-05-04 12:44 55.10819 -33.35198 35384 ft 450 kts 271°
2026-05-04 12:44 55.10961 -33.46111 35384 ft 450 kts 271°
2026-05-04 12:45 55.11094 -33.57026 35381 ft 450 kts 271°
2026-05-04 12:45 55.11217 -33.67951 35370 ft 450 kts 271°
2026-05-04 12:46 55.11330 -33.78878 35383 ft 451 kts 271°
2026-05-04 12:46 55.11434 -33.89859 35381 ft 453 kts 271°
2026-05-04 12:47 55.11528 -34.00850 35379 ft 453 kts 271°
2026-05-04 12:47 55.11613 -34.11852 35380 ft 453 kts 271°
2026-05-04 12:48 55.11687 -34.22842 35377 ft 453 kts 271°
2026-05-04 12:48 55.11751 -34.33841 35374 ft 453 kts 271°
2026-05-04 12:49 55.11806 -34.44839 35371 ft 453 kts 271°
2026-05-04 12:49 55.11851 -34.55839 35370 ft 453 kts 271°
2026-05-04 12:50 55.11885 -34.66833 35375 ft 453 kts 270°
2026-05-04 12:50 55.11910 -34.77848 35370 ft 454 kts 271°
2026-05-04 12:51 55.11925 -34.88897 35372 ft 455 kts 270°
2026-05-04 12:51 55.11930 -34.99956 35371 ft 455 kts 270°
2026-05-04 12:52 55.11925 -35.10942 35365 ft 455 kts 270°
2026-05-04 12:52 55.11910 -35.21989 35366 ft 455 kts 270°
2026-05-04 12:53 55.11885 -35.33030 35369 ft 455 kts 270°
2026-05-04 12:53 55.11851 -35.44081 35364 ft 455 kts 270°
2026-05-04 12:54 55.11806 -35.55125 35359 ft 455 kts 270°
2026-05-04 12:54 55.11751 -35.66176 35361 ft 455 kts 270°
2026-05-04 12:55 55.11686 -35.77260 35359 ft 457 kts 270°
2026-05-04 12:55 55.11610 -35.88377 35355 ft 458 kts 270°
2026-05-04 12:56 55.11525 -35.99498 35355 ft 458 kts 270°
2026-05-04 12:56 55.11429 -36.10615 35355 ft 458 kts 270°
2026-05-04 12:57 55.11323 -36.21729 35347 ft 458 kts 270°
2026-05-04 12:57 55.11207 -36.32849 35347 ft 458 kts 270°
2026-05-04 12:58 55.11081 -36.43957 35346 ft 457 kts 270°
2026-05-04 12:58 55.10945 -36.55050 35347 ft 456 kts 270°
2026-05-04 12:59 55.10799 -36.66128 35347 ft 457 kts 270°
2026-05-04 12:59 55.10643 -36.77230 35346 ft 458 kts 270°
2026-05-04 13:00 55.10477 -36.88346 35345 ft 458 kts 270°
2026-05-04 13:00 55.10300 -36.99464 35336 ft 458 kts 269°
2026-05-04 13:01 55.10113 -37.10565 35333 ft 457 kts 269°
2026-05-04 13:01 55.09917 -37.21642 35333 ft 456 kts 269°
2026-05-04 13:02 55.09711 -37.32708 35333 ft 456 kts 269°
2026-05-04 13:02 55.09497 -37.43704 35325 ft 456 kts 269°
2026-05-04 13:03 55.09269 -37.54843 35325 ft 456 kts 269°
2026-05-04 13:03 55.09033 -37.65921 35325 ft 457 kts 269°
2026-05-04 13:04 55.08787 -37.76935 35312 ft 456 kts 269°
2026-05-04 13:04 55.08531 -37.87966 35318 ft 454 kts 269°
2026-05-04 13:05 55.08266 -37.98976 35310 ft 454 kts 269°
2026-05-04 13:05 55.07992 -38.09982 35311 ft 454 kts 269°
2026-05-04 13:06 55.07707 -38.20982 35306 ft 454 kts 269°
2026-05-04 13:06 55.07413 -38.31981 35305 ft 454 kts 269°
2026-05-04 13:07 55.07108 -38.42978 35306 ft 452 kts 269°
2026-05-04 13:07 55.06796 -38.53866 35291 ft 448 kts 269°
2026-05-04 13:08 55.06476 -38.64709 35295 ft 447 kts 269°
2026-05-04 13:08 55.06204 -38.73710 35293 ft 447 kts 269°
2026-05-04 13:09 55.05867 -38.84551 35295 ft 447 kts 269°
2026-05-04 13:09 55.05520 -38.95380 35292 ft 447 kts 269°
2026-05-04 13:10 55.05164 -39.06205 35281 ft 447 kts 269°
2026-05-04 13:10 55.04799 -39.16979 35284 ft 443 kts 269°
2026-05-04 13:11 55.04427 -39.27680 35280 ft 442 kts 269°
2026-05-04 13:11 55.04047 -39.38391 35278 ft 442 kts 269°
2026-05-04 13:12 55.03658 -39.49089 35264 ft 443 kts 269°
2026-05-04 13:12 55.03258 -39.59798 35269 ft 443 kts 269°
2026-05-04 13:13 55.02849 -39.70500 35240 ft 442 kts 270°
2026-05-04 13:13 55.02431 -39.81155 35265 ft 439 kts 270°
2026-05-04 13:14 55.02008 -39.91737 35256 ft 437 kts 270°
2026-05-04 13:14 55.01575 -40.02311 35257 ft 438 kts 269°
2026-05-04 13:15 55.01000 -40.12880 35254 ft 439 kts 268°
2026-05-04 13:15 55.00342 -40.23445 35255 ft 439 kts 268°
2026-05-04 13:16 54.99691 -40.34008 35252 ft 438 kts 268°
2026-05-04 13:16 54.99050 -40.44539 35240 ft 435 kts 269°
2026-05-04 13:17 54.98411 -40.54993 35239 ft 434 kts 269°
2026-05-04 13:17 54.97766 -40.65437 35235 ft 434 kts 268°
2026-05-04 13:18 54.97111 -40.75874 35234 ft 434 kts 268°
2026-05-04 13:18 54.96451 -40.86241 35225 ft 434 kts 268°
2026-05-04 13:19 54.95777 -40.96673 35222 ft 434 kts 268°
2026-05-04 13:19 54.95090 -41.07155 35218 ft 431 kts 268°
2026-05-04 13:20 54.94403 -41.17478 35218 ft 429 kts 268°
2026-05-04 13:20 54.93716 -41.27720 35205 ft 429 kts 268°
2026-05-04 13:21 54.93015 -41.38024 35204 ft 429 kts 268°
2026-05-04 13:21 54.92305 -41.48332 35203 ft 429 kts 268°
2026-05-04 13:22 54.91585 -41.58635 35206 ft 429 kts 268°
2026-05-04 13:22 54.90857 -41.68928 35184 ft 429 kts 267°
2026-05-04 13:23 54.90124 -41.79159 35195 ft 425 kts 266°
2026-05-04 13:23 54.89386 -41.89347 35194 ft 425 kts 266°
2026-05-04 13:24 54.88641 -41.99523 35188 ft 425 kts 266°
2026-05-04 13:24 54.87886 -42.09699 35185 ft 425 kts 266°
2026-05-04 13:25 54.86738 -42.24956 35181 ft 425 kts 266°
2026-05-04 13:25 54.85963 -42.35122 35182 ft 425 kts 266°
2026-05-04 13:26 54.85178 -42.45289 35165 ft 424 kts 266°
2026-05-04 13:26 54.84386 -42.55424 35166 ft 424 kts 266°
2026-05-04 13:27 54.83588 -42.65548 35158 ft 424 kts 265°
2026-05-04 13:27 54.82780 -42.75677 35156 ft 424 kts 265°
2026-05-04 13:28 54.81964 -42.85796 35148 ft 424 kts 265°
2026-05-04 13:28 54.81139 -42.95914 35138 ft 423 kts 264°
2026-05-04 13:29 54.80311 -43.05965 35143 ft 420 kts 264°
2026-05-04 13:29 54.79478 -43.15975 35143 ft 420 kts 264°
2026-05-04 13:30 54.78636 -43.25983 35127 ft 420 kts 264°
2026-05-04 13:30 54.77787 -43.35987 35137 ft 420 kts 264°
2026-05-04 13:31 54.76929 -43.45988 35119 ft 420 kts 263°
2026-05-04 13:31 54.76068 -43.55929 35095 ft 420 kts 263°
2026-05-04 13:32 54.75187 -43.65996 35113 ft 420 kts 262°
2026-05-04 13:32 54.74308 -43.75935 35105 ft 420 kts 262°
2026-05-04 13:33 54.73417 -43.85927 35105 ft 420 kts 262°
2026-05-04 13:33 54.72515 -43.95928 35091 ft 421 kts 262°
2026-05-04 13:34 54.71607 -44.05917 35088 ft 421 kts 262°
2026-05-04 13:34 54.70689 -44.15911 35091 ft 421 kts 262°
2026-05-04 13:35 54.69294 -44.30936 35079 ft 424 kts 261°
2026-05-04 13:36 54.68347 -44.41006 35076 ft 426 kts 261°
2026-05-04 13:36 54.67388 -44.51116 35063 ft 427 kts 261°
2026-05-04 13:37 54.66420 -44.61222 35061 ft 427 kts 261°
2026-05-04 13:37 54.65443 -44.71335 35054 ft 427 kts 261°
2026-05-04 13:38 54.64457 -44.81441 35033 ft 427 kts 261°
2026-05-04 13:38 54.63462 -44.91564 35049 ft 429 kts 260°
2026-05-04 13:39 54.62455 -45.01706 35037 ft 429 kts 260°
2026-05-04 13:39 54.61438 -45.11856 35031 ft 429 kts 259°
2026-05-04 13:40 54.60415 -45.21987 35020 ft 429 kts 259°
2026-05-04 13:40 54.59382 -45.32121 35025 ft 429 kts 259°
2026-05-04 13:41 54.58338 -45.42278 35023 ft 431 kts 259°
2026-05-04 13:41 54.57282 -45.52457 35001 ft 432 kts 258°
2026-05-04 13:42 54.55680 -45.67736 35001 ft 432 kts 258°
2026-05-04 13:42 54.54601 -45.77925 34990 ft 432 kts 258°
2026-05-04 13:43 54.53521 -45.88033 34984 ft 432 kts 258°
2026-05-04 13:43 54.52419 -45.98263 34972 ft 432 kts 258°
2026-05-04 13:44 54.51322 -46.08362 34971 ft 432 kts 257°
2026-05-04 13:44 54.50208 -46.18535 34974 ft 433 kts 257°
2026-05-04 13:45 54.49082 -46.28731 34962 ft 434 kts 257°
2026-05-04 13:45 54.47944 -46.38951 34959 ft 436 kts 257°
2026-05-04 13:46 54.46795 -46.49188 34947 ft 436 kts 257°
2026-05-04 13:46 54.45636 -46.59429 34946 ft 436 kts 257°
2026-05-04 13:47 54.44470 -46.69659 34934 ft 436 kts 256°
2026-05-04 13:47 54.43295 -46.79879 34931 ft 436 kts 256°
2026-05-04 13:48 54.42111 -46.90091 34930 ft 436 kts 256°
2026-05-04 13:48 54.40919 -47.00302 34911 ft 436 kts 255°
2026-05-04 13:49 54.39718 -47.10501 34908 ft 436 kts 255°
2026-05-04 13:49 54.38509 -47.20699 34917 ft 436 kts 255°
2026-05-04 13:50 54.37288 -47.30908 34904 ft 438 kts 255°
2026-05-04 13:50 54.36052 -47.41168 34892 ft 441 kts 254°
2026-05-04 13:51 54.34803 -47.51461 34881 ft 441 kts 254°
2026-05-04 13:51 54.33545 -47.61750 34881 ft 441 kts 254°